Weather History for KMCB - January, 2014

Change the Weather History Date:

Sunday, January 26, 2014

  Actual Average Record
Temperature  
Mean Temperature 46 °F -  
Max Temperature 59 °F 58 °F 81 °F (1952)
Min Temperature 33 °F 36 °F 18 °F (1988)
Degree Days  
Heating Degree Days 19    
Moisture  
Dew Point 37 °F    
Average Humidity 71    
Maximum Humidity 92    
Minimum Humidity 39    
Precipitation  
Precipitation 0.00 in - - ()
Sea Level Pressure  
Sea Level Pressure 29.95 in    
Wind  
Wind Speed 3 mph (South)    
Max Wind Speed 10 mph    
Max Gust Speed -    
Visibility 10 miles    
Events      
Averages and records for this station are not official NWS values.
T = Trace of Precipitation, MM = Missing Value Source: NWS Daily Summary

Daily Weather History Graph

Daily Weather History Graph

Search for Another Location

Airport or City:

Trip Planner

Search our weather history database for the weather conditions in past years. The results will help you decide how hot, cold, wet, or windy it might be!

Date:

Astronomy

Jan. 26, 2014 Rise Set
Actual Time 6:57 AM CST 5:31 PM CST
Civil Twilight 6:31 AM CST 5:57 PM CST
Nautical Twilight 6:02 AM CST 6:26 PM CST
Astronomical Twilight 5:33 AM CST 6:55 PM CST
Moon 2:33 AM CST (1/26) 1:23 PM CST (1/26)
Length of Visible Light 11h 25m
Length of Day
10h 34m
Waning Crescent, 23% of the Moon is Illuminated
Jan 26
Waning Crescent
Jan 30
New
Feb 6
First Quarter
Feb 14
Full
Feb 22
Last Quarter

Hourly Weather History & Observations

Time (CST) Temp. Windchill Dew Point Humidity Pressure Visibility Wind Dir Wind Speed Gust Speed Precip Events Conditions
12:53 AM 34.0 °F - 30.0 °F 85% 30.03 in 10.0 mi Calm Calm - N/A   Clear
1:53 AM 33.1 °F - 30.0 °F 89% 30.02 in 10.0 mi Calm Calm - N/A   Clear
2:53 AM 33.1 °F - 30.0 °F 89% 30.01 in 10.0 mi Calm Calm - N/A   Clear
3:53 AM 33.1 °F - 30.0 °F 89% 30.01 in 10.0 mi Calm Calm - N/A   Clear
4:53 AM 33.1 °F - 30.9 °F 92% 30.01 in 10.0 mi Calm Calm - N/A   Clear
5:53 AM 34.0 °F - 30.9 °F 89% 30.02 in 10.0 mi Calm Calm - N/A   Clear
6:53 AM 33.1 °F - 30.9 °F 92% 30.03 in 10.0 mi Calm Calm - N/A   Clear
7:53 AM 35.1 °F - 33.1 °F 92% 30.03 in 10.0 mi Calm Calm - N/A   Clear
8:53 AM 39.9 °F 35.8 °F 37.0 °F 89% 30.03 in 9.0 mi South 5.8 mph - N/A   Clear
9:53 AM 43.0 °F - 37.9 °F 82% 30.04 in 10.0 mi Calm Calm - N/A   Clear
10:53 AM 50.0 °F - 39.0 °F 66% 30.02 in 10.0 mi Calm Calm - N/A   Clear
11:53 AM 57.0 °F - 34.0 °F 42% 29.99 in 10.0 mi South 9.2 mph - N/A   Clear
12:53 PM 57.0 °F - 32.0 °F 39% 29.94 in 10.0 mi SW 8.1 mph - N/A   Clear
1:53 PM 59.0 °F - 35.1 °F 41% 29.90 in 10.0 mi South 9.2 mph - N/A   Clear
2:53 PM 59.0 °F - 35.1 °F 41% 29.88 in 10.0 mi South 9.2 mph - N/A   Partly Cloudy
3:53 PM 59.0 °F - 35.1 °F 41% 29.87 in 10.0 mi South 9.2 mph - N/A   Scattered Clouds
4:53 PM 57.0 °F - 37.9 °F 49% 29.87 in 10.0 mi SSE 5.8 mph - N/A   Scattered Clouds
5:53 PM 55.9 °F - 39.0 °F 53% 29.87 in 10.0 mi ESE 3.5 mph - N/A   Mostly Cloudy
6:53 PM 54.0 °F - 39.9 °F 59% 29.87 in 10.0 mi SSE 8.1 mph - N/A   Overcast
7:53 PM 54.0 °F - 42.1 °F 64% 29.87 in 10.0 mi South 8.1 mph - N/A   Overcast
8:53 PM 54.0 °F - 44.1 °F 69% 29.86 in 10.0 mi South 10.4 mph - N/A   Overcast
9:53 PM 53.1 °F - 45.0 °F 74% 29.87 in 10.0 mi South 9.2 mph - N/A   Overcast
10:53 PM 52.0 °F - 46.0 °F 80% 29.88 in 10.0 mi South 8.1 mph - N/A   Unknown
11:49 PM 51.8 °F - 46.4 °F 82% 29.88 in 10.0 mi South 6.9 mph - N/A   Mostly Cloudy
11:53 PM 51.1 °F - 46.9 °F 86% 29.88 in 10.0 mi South 8.1 mph - N/A   Mostly Cloudy